This is the latest recevied weather packets stored in our database for station/object VR2HK-13. If no packets are shown the sender has not sent any weather packets the latest 1 day(s).
| Time | Temp. | Humidity | Pressure | Rain* | Wind** | Luminosity | Snow |
|---|---|---|---|---|---|---|---|
| 1778058907 | 24.44° C | 82% | 1011.5 hPa | 1.27 mm | 0.89 m/s, 293° | - | - |
| 1778058759 | 24.44° C | 82% | 1011.6 hPa | 1.27 mm | 0.45 m/s, 326° | - | - |
| 1778058607 | 23.89° C | 82% | 1011.6 hPa | 1.78 mm | 0.45 m/s, 10° | - | - |
| 1778058449 | 23.89° C | 82% | 1011.6 hPa | 1.78 mm | 2.68 m/s, 19° | - | - |
| 1778058308 | 23.89° C | 82% | 1011.7 hPa | 2.03 mm | 0.45 m/s, 319° | - | - |
| 1778058139 | 23.89° C | 82% | 1011.7 hPa | 2.03 mm | 0.45 m/s, 178° | - | - |
| 1778058007 | 23.89° C | 81% | 1011.6 hPa | 2.03 mm | 2.68 m/s, 264° | - | - |
| 1778057828 | 23.89° C | 81% | 1011.7 hPa | 2.29 mm | 1.79 m/s, 39° | - | - |
| 1778057707 | 23.89° C | 81% | 1011.8 hPa | 2.29 mm | 3.13 m/s, 65° | - | - |
| 1778057519 | 24.44° C | 81% | 1011.7 hPa | 2.54 mm | 1.34 m/s, 238° | - | - |
| 1778057407 | 24.44° C | 81% | 1011.7 hPa | 2.54 mm | 1.79 m/s, 263° | - | - |
| 1778056807 | 24.44° C | 81% | 1011.7 hPa | 2.79 mm | 0.89 m/s, 53° | - | - |
| 1778056588 | 24.44° C | 81% | 1011.6 hPa | 2.54 mm | 0.89 m/s, 124° | - | - |
| 1778056507 | 24.44° C | 80% | 1011.6 hPa | 2.54 mm | 3.13 m/s, 94° | - | - |
| 1778056279 | 24.44° C | 81% | 1011.6 hPa | 2.29 mm | 2.24 m/s, 337° | - | - |
| 1778055969 | 24.44° C | 81% | 1011.5 hPa | 2.03 mm | 0.45 m/s, 201° | - | - |
| 1778055908 | 24.44° C | 81% | 1011.6 hPa | 1.78 mm | 0.89 m/s, 98° | - | - |
| 1778055658 | 24.44° C | 81% | 1011.6 hPa | 2.03 mm | 1.79 m/s, 246° | - | - |
| 1778055607 | 24.44° C | 81% | 1011.6 hPa | 2.03 mm | 1.34 m/s, 360° | - | - |
| 1778055349 | 23.89° C | 81% | 1011.6 hPa | 2.03 mm | 0.89 m/s, 215° | - | - |
| 1778055307 | 23.89° C | 81% | 1011.6 hPa | 2.03 mm | 0.89 m/s, 20° | - | - |
| 1778055039 | 23.89° C | 81% | 1011.8 hPa | 2.03 mm | 0.45 m/s, 221° | - | - |
| 1778055006 | 23.89° C | 81% | 1011.8 hPa | 1.27 mm | 0.89 m/s, 274° | - | - |
| 1778054728 | 24.44° C | 81% | 1011.8 hPa | 1.02 mm | 1.79 m/s, 245° | - | - |
| 1778054706 | 24.44° C | 81% | 1011.8 hPa | 1.02 mm | 1.34 m/s, 241° | - | - |
* Rain latest hour (hover to see other rain measurements)
** Current wind speed in m/s (hover to see current wind gust speed)